WBANNO,USDM_WEEK,LONGITUDE,LATITUDE,SMVWC_5_CM_MEAN,SMANOM_5_CM_MEAN,SMPERC_5_CM_30COUNTS,SMPERC_5_CM_70COUNTS,SMVWC_10_CM_MEAN,SMANOM_10_CM_MEAN,SMPERC_10_CM_30COUNTS,SMPERC_10_CM_70COUNTS,SMVWC_20_CM_MEAN,SMANOM_20_CM_MEAN,SMPERC_20_CM_30COUNTS,SMPERC_20_CM_70COUNTS,SMVWC_50_CM_MEAN,SMANOM_50_CM_MEAN,SMPERC_50_CM_30COUNTS,SMPERC_50_CM_70COUNTS,SMVWC_100_CM_MEAN,SMANOM_100_CM_MEAN,SMPERC_100_CM_30COUNTS,SMPERC_100_CM_70COUNTS,SMVWC_TOP_CM_MEAN,SMANOM_TOP_CM_MEAN,SMPERC_TOP_CM_30COUNTS,SMPERC_TOP_CM_70COUNTS,SMVWC_COLUMN_CM_MEAN,SMANOM_COLUMN_CM_MEAN,SMPERC_COLUMN_CM_30COUNTS,SMPERC_COLUMN_CM_70COUNTS
73803,20240227,-86.06,33.57,,,,,,,,,,,,,,,,,,,,,,,,,,,,
73803,20240228,-86.06,33.57,,,,,,,,,,,,,,,,,,,,,,,,,,,,
73803,20240229,-86.06,33.57,,,,,,,,,,,,,,,,,,,,,,,,,,,,
73803,20240301,-86.06,33.57,,,,,,,,,,,,,,,,,,,,,,,,,,,,
73803,20240302,-86.06,33.57,,,,,,,,,,,,,,,,,,,,,,,,,,,,
73803,20240303,-86.06,33.57,0.113,,,,0.14,,,,0.115,,,,0.266,,,,,,,,0.126,,,,,,,
73803,20240304,-86.06,33.57,0.114,,,,0.14,,,,0.115,,,,0.267,,,,,,,,0.127,,,,,,,
73803,20240305,-86.06,33.57,0.114,,,,0.141,,,,0.116,,,,0.268,,,,,,,,0.128,,,,,,,
73803,20240306,-86.06,33.57,0.116,,,,0.143,,,,0.118,,,,0.269,,,,,,,,0.129,,,,,,,
73803,20240307,-86.06,33.57,0.12,,,,0.146,,,,0.12,,,,0.271,,,,,,,,0.133,,,,,,,
73803,20240308,-86.06,33.57,0.123,,,,0.148,,,,0.123,,,,0.273,,,,,,,,0.135,,,,,,,
73803,20240309,-86.06,33.57,0.123,,,,0.149,,,,0.126,,,,0.28,,,,,,,,0.136,,,,,,,
73803,20240310,-86.06,33.57,0.123,,,,0.149,,,,0.127,,,,0.283,,,,,,,,0.136,,,,,,,
73803,20240311,-86.06,33.57,0.123,,,,0.15,,,,0.127,,,,0.284,,,,,,,,0.136,,,,,,,
73803,20240312,-86.06,33.57,0.123,,,,0.15,,,,0.128,,,,0.284,,,,,,,,0.137,,,,,,,
73803,20240313,-86.06,33.57,0.122,,,,0.151,,,,0.128,,,,0.285,,,,,,,,0.137,,,,,,,
73803,20240314,-86.06,33.57,0.119,,,,0.149,,,,0.126,,,,0.285,,,,,,,,0.134,,,,,,,
73803,20240315,-86.06,33.57,0.117,,,,0.148,,,,0.125,,,,0.284,,,,,,,,0.132,,,,,,,
73803,20240316,-86.06,33.57,0.116,,,,0.146,,,,0.122,,,,0.276,,,,,,,,0.131,,,,,,,
73803,20240317,-86.06,33.57,0.115,,,,0.145,,,,0.12,,,,0.274,,,,,,,,0.13,,,,,,,
73803,20240318,-86.06,33.57,0.115,,,,0.144,,,,0.12,,,,0.273,,,,,,,,0.129,,,,,,,
73803,20240319,-86.06,33.57,0.114,,,,0.144,,,,0.119,,,,0.272,,,,,,,,0.129,,,,,,,
73803,20240320,-86.06,33.57,0.114,,,,0.144,,,,0.119,,,,0.272,,,,,,,,0.129,,,,,,,
73803,20240321,-86.06,33.57,0.114,,,,0.144,,,,0.119,,,,0.272,,,,,,,,0.129,,,,,,,
73803,20240322,-86.06,33.57,0.114,,,,0.143,,,,0.119,,,,0.271,,,,,,,,0.129,,,,,,,
73803,20240323,-86.06,33.57,0.11,,,,0.14,,,,0.115,,,,0.268,,,,,,,,0.125,,,,,,,
73803,20240324,-86.06,33.57,0.107,,,,0.137,,,,0.112,,,,0.266,,,,,,,,0.122,,,,,,,
73803,20240325,-86.06,33.57,0.104,,,,0.135,,,,0.11,,,,0.264,,,,,,,,0.12,,,,,,,
73803,20240326,-86.06,33.57,0.102,,,,0.133,,,,0.108,,,,0.261,,,,,,,,0.117,,,,,,,
73803,20240327,-86.06,33.57,0.104,,,,0.134,,,,0.109,,,,0.26,,,,,,,,0.119,,,,,,,
73803,20240328,-86.06,33.57,0.106,,,,0.135,,,,0.111,,,,0.26,,,,,,,,0.121,,,,,,,
73803,20240329,-86.06,33.57,0.107,,,,0.136,,,,0.112,,,,0.26,,,,,,,,0.122,,,,,,,
73803,20240330,-86.06,33.57,0.108,,,,0.137,,,,0.112,,,,0.261,,,,,,,,0.123,,,,,,,
73803,20240331,-86.06,33.57,0.108,,,,0.137,,,,0.112,,,,0.261,,,,,,,,0.123,,,,,,,
73803,20240401,-86.06,33.57,0.108,,,,0.138,,,,0.113,,,,0.261,,,,,,,,0.123,,,,,,,
73803,20240402,-86.06,33.57,0.107,,,,0.137,,,,0.113,,,,0.262,,,,,,,,0.122,,,,,,,
73803,20240403,-86.06,33.57,0.102,,,,0.134,,,,0.11,,,,0.261,,,,,,,,0.118,,,,,,,
73803,20240404,-86.06,33.57,0.097,,,,0.13,,,,0.107,,,,0.259,,,,,,,,0.113,,,,,,,
73803,20240405,-86.06,33.57,0.092,,,,0.126,,,,0.104,,,,0.257,,,,,,,,0.109,,,,,,,
73803,20240406,-86.06,33.57,0.088,,,,0.123,,,,0.102,,,,0.254,,,,,,,,0.106,,,,,,,
73803,20240407,-86.06,33.57,0.085,,,,0.12,,,,0.1,,,,0.251,,,,,,,,0.102,,,,,,,
73803,20240408,-86.06,33.57,0.081,,,,0.117,,,,0.098,,,,0.248,,,,,,,,0.099,,,,,,,
73803,20240409,-86.06,33.57,0.078,,,,0.114,,,,0.096,,,,0.245,,,,,,,,0.096,,,,,,,
73803,20240410,-86.06,33.57,0.082,,,,0.115,,,,0.095,,,,0.242,,,,,,,,0.098,,,,,,,
73803,20240411,-86.06,33.57,0.087,,,,0.119,,,,0.098,,,,0.239,,,,,,,,0.103,,,,,,,
73803,20240412,-86.06,33.57,0.093,,,,0.124,,,,0.102,,,,0.239,,,,,,,,0.108,,,,,,,
73803,20240413,-86.06,33.57,0.098,,,,0.128,,,,0.105,,,,0.24,,,,,,,,0.113,,,,,,,
73803,20240414,-86.06,33.57,0.102,,,,0.131,,,,0.108,,,,0.242,,,,,,,,0.117,,,,,,,
73803,20240415,-86.06,33.57,0.105,,,,0.134,,,,0.11,,,,0.244,,,,,,,,0.12,,,,,,,
73803,20240416,-86.06,33.57,0.109,,,,0.137,,,,0.112,,,,0.247,,,,,,,,0.123,,,,,,,
73803,20240417,-86.06,33.57,0.105,,,,0.136,,,,0.112,,,,0.249,,,,,,,,0.12,,,,,,,
73803,20240418,-86.06,33.57,0.099,,,,0.132,,,,0.109,,,,0.25,,,,,,,,0.115,,,,,,,
73803,20240419,-86.06,33.57,0.093,,,,0.127,,,,0.105,,,,0.25,,,,,,,,0.11,,,,,,,
73803,20240420,-86.06,33.57,0.088,,,,0.123,,,,0.102,,,,0.248,,,,,,,,0.105,,,,,,,
73803,20240421,-86.06,33.57,0.083,,,,0.119,,,,0.1,,,,0.245,,,,,,,,0.101,,,,,,,
73803,20240422,-86.06,33.57,0.08,,,,0.116,,,,0.098,,,,0.242,,,,,,,,0.098,,,,,,,
73803,20240423,-86.06,33.57,0.078,,,,0.113,,,,0.096,,,,0.239,,,,,,,,0.095,,,,,,,
73803,20240424,-86.06,33.57,0.076,,,,0.111,,,,0.095,,,,0.236,,,,,,,,0.093,,,,,,,
73803,20240425,-86.06,33.57,0.075,,,,0.109,,,,0.093,,,,0.233,,,,,,,,0.092,,,,,,,
73803,20240426,-86.06,33.57,0.073,,,,0.106,,,,0.092,,,,0.23,,,,,,,,0.09,,,,,,,
73803,20240427,-86.06,33.57,0.071,,,,0.104,,,,0.09,,,,0.226,,,,,,,,0.088,,,,,,,
73803,20240428,-86.06,33.57,0.068,,,,0.101,,,,0.089,,,,0.222,,,,,,,,0.085,,,,,,,
73803,20240429,-86.06,33.57,0.065,,,,0.098,,,,0.087,,,,0.217,,,,,,,,0.081,,,,,,,
73803,20240430,-86.06,33.57,0.061,,,,0.094,,,,0.085,,,,0.212,,,,,,,,0.077,,,,,,,
73803,20240501,-86.06,33.57,0.057,,,,0.091,,,,0.083,,,,0.209,,,,,,,,0.074,,,,,,,
